Wind_Speed
4 4 5 5 6 6 6 6 6 7 7 7 8 9 9 9 9 9 9 8 9 10 10 10 10 10 10 9 9 9 9 9 9 9 10 10 9 9 8 8 8 8 7
5 5 5 5 6 6 6 7 6 7 7 8 9 9 9 10 10 9 9 10 11 11 12 11 11 11 11 10 10 10 10 10 10 10 11 11 10 10 9 9 9 8 8
5 6 5 5 6 7 6 6 6 7 7 8 9 9 10 10 11 11 10 10 11 12 12 12 12 13 12 12 11 11 11 12 11 11 11 11 11 12 11 10 10 9 9
5 6 6 6 6 7 7 7 6 6 7 8 8 9 9 10 11 11 10 10 11 11 12 12 12 12 12 12 12 12 12 12 12 11 12 12 12 13 12 11 11 10 10
6 6 7 7 6 6 6 6 6 6 6 7 7 8 9 10 10 10 10 11 12 12 12 13 13 12 12 11 12 11 12 12 11 11 12 12 12 12 13 12 12 11 11
6 6 6 6 5 5 5 5 5 6 6 6 7 7 8 9 9 10 10 11 11 12 13 13 13 13 13 12 11 12 12 12 12 12 12 12 11 12 12 13 12 12 12
6 6 6 6 5 5 5 5 5 6 6 6 6 7 7 8 9 10 11 11 12 12 12 13 14 13 13 12 12 12 13 13 12 12 13 12 12 13 14 13 13 13 13
6 6 7 6 6 5 5 5 6 6 6 6 6 7 7 7 8 9 10 10 10 11 11 12 13 12 12 12 12 12 12 12 12 12 13 14 14 13 14 14 14 14 14
6 7 6 6 6 6 5 6 6 5 5 6 6 6 7 7 7 8 8 8 9 8 8 9 11 10 11 12 12 12 11 11 11 11 12 13 13 13 14 15 15 15 15
7 7 6 6 6 6 6 6 6 5 5 5 6 6 6 6 7 8 8 9 8 7 6 7 8 9 10 10 10 11 12 11 11 12 12 12 13 14 15 15 16 16 16
6 6 6 6 6 6 6 6 6 6 5 5 6 6 6 7 7 7 7 7 7 7 7 7 7 7 8 9 9 9 10 11 11 11 12 12 13 14 15 16 16 17 17
6 6 6 6 6 6 6 5 5 5 6 6 6 6 6 6 6 6 6 7 7 7 7 7 7 8 8 9 9 9 9 10 11 11 12 11 12 12 14 15 15 16 17
6 6 6 6 6 6 5 5 5 5 6 6 6 6 5 5 5 5 6 6 6 6 6 6 7 7 8 9 10 9 10 10 10 10 10 11 11 12 12 13 14 15 15
6 6 5 5 5 5 5 5 5 5 6 6 6 6 5 5 5 5 6 6 5 5 5 5 6 7 8 8 9 9 10 10 10 11 10 10 11 11 11 11 12 13 14
6 6 6 5 5 5 5 5 5 5 5 5 5 5 5 6 6 5 5 5 5 5 5 5 6 6 7 7 7 8 9 10 11 11 10 10 11 11 11 11 11 13 13
7 7 7 6 5 6 6 6 6 6 5 5 5 5 5 5 5 5 4 5 5 6 6 6 6 7 7 7 7 8 8 9 9 10 11 11 11 11 11 12 12 12 13
7 7 7 6 6 6 6 6 6 6 6 6 5 5 5 5 4 5 4 5 6 6 6 6 6 6 7 7 7 7 8 7 8 9 10 11 11 12 12 12 13 13 13
7 7 7 7 7 6 6 6 7 7 6 6 5 5 5 5 5 5 5 6 6 6 6 6 6 6 6 7 7 7 7 7 7 8 9 10 11 11 12 12 13 13 12
7 7 7 7 7 7 6 6 7 7 6 6 5 5 6 6 6 5 5 6 6 6 6 6 6 6 6 6 6 6 7 7 8 8 8 9 10 11 12 12 12 13 13
7 6 6 7 7 7 7 6 6 6 7 6 6 6 7 7 6 6 6 6 6 6 6 6 6 6 6 6 7 6 6 7 7 7 8 9 10 10 11 11 12 12 12
7 7 7 7 7 7 7 7 7 7 7 7 7 7 7 7 6 6 6 6 6 6 6 6 6 6 6 6 7 7 7 7 7 7 8 9 9 10 11 11 12 11 11
7 7 7 7 7 7 7 8 7 8 8 8 8 8 8 7 7 7 7 7 6 7 7 7 7 7 7 7 8 8 7 8 8 9 9 9 10 11 11 11 12 11 11
7 6 6 7 7 7 8 8 8 8 8 8 8 8 8 8 8 8 7 7 7 7 7 7 7 7 7 8 8 8 8 8 8 9 9 10 10 10 10 10 11 11 11
7 7 7 7 7 7 8 8 9 9 9 8 9 9 9 9 8 8 7 7 7 7 7 7 7 8 8 8 9 8 9 9 9 9 9 10 10 10 10 10 10 10 10
8 8 8 8 9 8 8 9 9 10 10 9 9 9 8 9 8 7 7 7 7 8 8 9 9 9 9 9 9 9 9 10 10 9 9 9 10 10 10 10 10 10 10
9 9 9 9 9 9 10 10 10 10 10 9 9 9 8 8 8 8 8 8 8 8 8 9 9 9 10 10 10 10 10 10 10 10 10 10 9 10 10 10 10 10 11
Wind_Direction
317 316 310 307 303 300 302 294 287 280 270 265 257 255 254 248 247 245 246 243 244 242 242 245 247 246 246 247 246 244 242 239 233 230 231 233 235 231 233 241 241 241 239
320 318 319 314 310 303 300 293 283 279 275 272 266 260 254 250 251 250 254 250 249 248 248 247 248 248 248 248 247 244 241 238 236 236 237 238 239 240 240 245 246 244 243
318 316 316 314 314 304 294 291 282 276 274 277 274 266 260 260 260 257 259 255 253 252 253 250 247 248 249 249 247 245 243 241 242 242 241 241 243 244 243 245 246 247 247
320 319 312 312 310 302 296 287 279 280 276 279 277 269 265 266 266 260 256 258 257 257 255 253 250 247 247 249 249 247 246 244 245 244 242 243 246 246 244 244 244 244 247
324 322 318 316 312 309 300 289 282 282 279 280 280 276 271 266 264 263 258 263 263 259 259 260 256 252 252 252 252 250 248 246 247 246 243 244 243 243 241 242 245 246 250
332 333 327 320 317 319 314 299 290 288 285 281 278 277 273 267 268 266 266 268 267 263 261 259 257 255 253 253 255 253 252 250 249 246 245 244 243 244 245 245 246 246 249
337 337 340 334 331 326 324 312 299 293 290 287 281 278 277 274 272 270 269 272 272 270 266 261 255 252 252 254 255 255 255 251 249 247 244 244 245 248 249 247 248 250 251
335 335 338 336 331 327 323 320 312 302 293 288 283 281 278 281 277 275 273 274 278 276 270 258 251 248 255 258 253 253 255 253 250 250 248 248 249 250 247 247 249 251 255
328 328 331 333 333 330 328 321 312 305 301 293 288 284 283 284 280 275 278 279 278 277 270 260 250 247 253 255 255 254 255 257 253 251 250 250 249 249 249 250 252 255 257
332 333 333 331 328 327 323 321 314 308 303 299 296 292 288 284 280 278 279 280 278 276 272 257 252 248 249 252 252 254 256 256 254 251 251 253 252 252 253 254 256 257 257
337 334 333 331 327 321 320 315 312 309 305 299 299 298 296 291 286 280 279 279 276 273 267 261 255 253 251 247 249 253 257 254 252 250 252 256 257 256 254 256 256 256 257
337 331 331 330 326 324 324 321 314 311 309 306 306 301 299 296 292 285 283 283 280 267 263 263 260 258 258 255 253 257 258 255 253 256 256 257 259 258 256 257 257 257 258
339 334 331 335 334 330 330 326 318 313 314 311 312 305 300 295 293 289 290 286 279 266 263 263 263 264 260 262 262 262 259 252 252 258 261 260 260 262 263 261 258 259 259
340 342 337 339 340 338 334 332 326 322 321 320 313 307 300 299 297 294 290 288 278 276 272 272 273 269 267 268 268 261 259 257 259 262 261 262 263 265 267 266 263 261 260
342 345 344 343 348 349 345 342 337 333 328 323 318 313 309 303 300 292 287 290 283 281 281 282 283 278 274 273 269 268 268 260 260 259 262 265 267 267 267 266 266 264 262
339 342 346 342 344 348 346 340 336 336 334 330 325 317 313 311 308 294 284 288 288 284 286 288 288 285 281 281 276 273 272 270 261 263 266 266 268 266 267 269 268 266 265
340 341 341 337 338 343 343 340 334 329 327 323 319 317 312 311 312 307 300 289 289 287 287 291 296 292 286 284 283 281 275 275 271 266 267 269 268 269 272 270 269 269 267
336 340 340 336 334 335 338 339 336 331 328 325 322 323 319 315 312 303 298 296 291 286 286 290 295 293 288 284 281 279 276 277 278 271 271 273 272 274 275 275 275 273 271
327 333 340 340 339 338 337 337 335 336 336 333 328 327 322 316 311 304 301 300 295 289 289 293 296 289 284 285 281 280 279 276 277 278 275 272 274 275 277 277 276 274 273
328 328 334 338 341 339 333 332 334 334 335 334 325 321 320 318 314 307 304 301 296 290 290 292 291 288 286 289 286 282 280 277 280 277 275 275 275 279 280 279 279 281 275
332 328 325 331 336 334 331 331 333 332 332 330 322 318 319 318 313 307 302 301 297 291 292 295 292 290 290 288 288 289 290 284 281 277 274 278 282 285 284 283 283 282 276
329 326 322 323 326 326 324 326 328 326 326 324 322 318 318 316 312 306 303 300 296 293 292 293 291 289 281 284 287 286 292 291 286 281 282 284 285 287 288 287 286 282 276
323 321 320 320 320 318 319 320 322 321 320 319 318 316 314 311 310 306 300 296 292 291 293 292 289 284 283 286 287 287 289 287 285 286 287 287 285 287 291 290 288 283 276
310 315 317 315 316 316 315 315 316 318 317 315 315 312 313 313 310 304 299 294 289 286 287 288 288 287 286 289 291 290 290 291 291 292 291 289 290 289 289 291 291 286 277
305 308 311 311 314 315 311 310 313 316 316 313 310 310 310 311 308 304 300 291 289 288 287 281 282 284 286 288 290 291 289 293 296 296 295 294 293 293 291 291 290 287 283
299 301 306 306 309 309 308 309 310 314 318 316 312 310 309 311 309 304 303 295 290 289 290 285 282 282 286 288 290 291 291 293 297 297 298 297 296 293 292 292 290 288 287
Height
5877 5876 5876 5875 5874 5874 5874 5873 5873 5873 5872 5872 5872 5872 5872 5872 5872 5872 5872 5873 5873 5873 5873 5874 5874 5874 5875 5875 5875 5875 5875 5874 5875 5875 5875 5876 5876 5877 5877 5877 5877 5878 5878
5876 5876 5875 5874 5873 5873 5872 5872 5872 5871 5871 5871 5871 5871 5871 5871 5871 5871 5871 5871 5871 5872 5872 5872 5872 5872 5873 5873 5873 5873 5873 5874 5874 5874 5874 5875 5875 5875 5876 5876 5876 5877 5877
5875 5875 5874 5873 5872 5871 5871 5871 5870 5870 5870 5870 5870 5869 5869 5869 5869 5869 5870 5869 5869 5870 5870 5870 5870 5870 5871 5871 5871 5872 5872 5872 5873 5873 5873 5873 5874 5874 5875 5875 5875 5875 5876
5874 5874 5873 5872 5872 5871 5870 5869 5869 5869 5869 5869 5868 5868 5868 5868 5868 5868 5868 5868 5868 5867 5867 5868 5868 5868 5868 5869 5869 5870 5870 5871 5871 5871 5871 5872 5872 5873 5873 5873 5873 5874 5874
5874 5873 5872 5871 5870 5870 5869 5868 5868 5868 5868 5867 5867 5867 5866 5866 5866 5866 5866 5866 5865 5865 5865 5865 5865 5866 5866 5867 5867 5867 5868 5868 5869 5869 5870 5870 5870 5870 5871 5871 5871 5872 5872
5873 5872 5871 5870 5869 5869 5868 5867 5867 5867 5867 5866 5866 5865 5865 5865 5865 5864 5864 5863 5863 5863 5862 5862 5862 5863 5864 5864 5865 5865 5865 5866 5866 5867 5867 5868 5868 5868 5869 5869 5869 5870 5870
5872 5871 5870 5869 5868 5868 5867 5866 5866 5865 5865 5865 5864 5864 5863 5863 5863 5863 5862 5861 5861 5860 5858 5858 5859 5861 5861 5862 5862 5863 5863 5863 5864 5864 5865 5865 5865 5866 5866 5867 5867 5868 5868
5871 5870 5869 5868 5868 5867 5866 5865 5865 5864 5864 5863 5863 5862 5862 5861 5861 5861 5860 5859 5858 5856 5854 5853 5855 5857 5858 5859 5859 5860 5860 5861 5861 5862 5862 5862 5863 5863 5864 5864 5865 5865 5865
5871 5870 5868 5868 5867 5866 5865 5864 5864 5863 5862 5862 5861 5861 5860 5860 5860 5859 5859 5858 5857 5855 5852 5851 5853 5854 5855 5856 5856 5857 5858 5858 5859 5859 5859 5860 5860 5860 5861 5862 5862 5862 5863
5870 5868 5867 5867 5866 5865 5864 5863 5863 5862 5861 5861 5860 5859 5859 5858 5858 5858 5857 5856 5855 5854 5852 5852 5852 5853 5853 5853 5853 5854 5855 5855 5856 5856 5857 5857 5857 5857 5858 5858 5859 5859 5860
5869 5868 5867 5866 5864 5864 5863 5862 5861 5861 5860 5859 5859 5858 5857 5857 5856 5856 5855 5854 5854 5853 5852 5851 5851 5851 5851 5851 5851 5852 5852 5853 5853 5854 5854 5854 5854 5854 5855 5855 5855 5856 5856
5868 5867 5866 5865 5864 5863 5862 5861 5860 5859 5859 5858 5857 5856 5856 5855 5855 5854 5853 5853 5852 5851 5851 5851 5850 5850 5850 5850 5850 5850 5850 5850 5851 5851 5852 5851 5851 5851 5851 5852 5852 5852 5852
5867 5866 5865 5864 5863 5861 5860 5860 5859 5858 5857 5857 5856 5855 5854 5854 5853 5853 5852 5851 5850 5850 5850 5849 5849 5849 5848 5848 5848 5848 5848 5848 5849 5849 5849 5849 5849 5849 5848 5848 5849 5849 5849
5866 5865 5864 5862 5861 5860 5859 5859 5858 5857 5856 5855 5854 5853 5853 5852 5851 5851 5850 5849 5849 5849 5848 5848 5848 5847 5847 5846 5846 5846 5846 5846 5846 5847 5847 5846 5846 5846 5846 5845 5845 5845 5845
5865 5864 5863 5862 5860 5859 5858 5857 5856 5856 5855 5854 5853 5852 5851 5851 5850 5849 5848 5848 5848 5847 5847 5846 5846 5845 5845 5845 5844 5844 5844 5844 5844 5844 5844 5844 5843 5843 5843 5843 5842 5842 5842
5864 5863 5862 5861 5859 5858 5857 5856 5855 5854 5854 5853 5852 5851 5850 5849 5848 5848 5847 5847 5846 5846 5845 5845 5844 5844 5844 5843 5843 5842 5842 5842 5841 5841 5841 5841 5841 5840 5840 5840 5839 5839 5839
5863 5862 5861 5860 5858 5857 5856 5855 5854 5853 5852 5851 5850 5849 5848 5847 5847 5846 5846 5845 5845 5844 5844 5843 5843 5842 5842 5841 5841 5840 5840 5840 5839 5839 5839 5838 5838 5838 5837 5837 5836 5836 5835
5862 5861 5860 5859 5857 5856 5855 5854 5853 5852 5851 5850 5849 5848 5847 5846 5845 5845 5844 5844 5843 5842 5842 5841 5841 5840 5840 5840 5839 5839 5838 5838 5837 5837 5836 5836 5836 5835 5835 5834 5833 5833 5832
5861 5860 5859 5858 5856 5855 5854 5853 5852 5851 5849 5848 5847 5847 5846 5845 5844 5843 5842 5842 5841 5840 5840 5840 5839 5839 5838 5838 5837 5837 5836 5836 5835 5835 5834 5834 5833 5832 5831 5831 5830 5829 5828
5860 5859 5858 5857 5855 5854 5853 5852 5851 5850 5848 5847 5846 5845 5844 5843 5842 5841 5840 5840 5839 5839 5838 5838 5837 5837 5836 5836 5835 5835 5834 5834 5833 5832 5832 5831 5830 5829 5828 5828 5827 5825 5824
5859 5858 5856 5855 5854 5853 5852 5851 5849 5848 5847 5846 5845 5844 5843 5842 5841 5840 5839 5838 5837 5837 5836 5836 5835 5835 5834 5834 5834 5833 5832 5831 5831 5830 5829 5829 5828 5827 5826 5825 5824 5822 5821
5858 5856 5855 5854 5853 5852 5851 5849 5848 5847 5846 5844 5843 5842 5841 5840 5839 5838 5837 5836 5835 5835 5834 5834 5833 5833 5832 5832 5831 5831 5830 5830 5829 5828 5827 5826 5825 5824 5823 5822 5820 5819 5819
5856 5855 5854 5853 5852 5851 5849 5848 5847 5846 5844 5843 5841 5840 5839 5838 5837 5836 5835 5834 5833 5832 5832 5831 5831 5830 5830 5830 5829 5829 5828 5827 5827 5826 5825 5824 5822 5821 5820 5819 5818 5816 5815
5855 5854 5852 5851 5850 5849 5848 5847 5845 5844 5842 5841 5839 5838 5837 5836 5835 5833 5832 5831 5831 5830 5830 5829 5829 5828 5828 5827 5827 5826 5826 5825 5824 5823 5822 5821 5819 5818 5817 5816 5815 5813 5812
5853 5852 5851 5849 5848 5847 5846 5844 5843 5842 5840 5839 5837 5836 5835 5833 5832 5831 5830 5829 5828 5828 5827 5827 5826 5826 5825 5825 5824 5823 5823 5822 5821 5820 5819 5818 5817 5815 5814 5813 5812 5811 5810
5850 5850 5848 5847 5846 5845 5844 5842 5841 5840 5838 5836 5835 5833 5832 5831 5830 5829 5828 5827 5826 5826 5825 5824 5824 5823 5823 5822 5822 5821 5820 5819 5818 5817 5816 5815 5814 5813 5811 5810 5809 5808 5807